Regional Weather Roundup
Issued by NWS

Home | Current Version | Previous Version | Graphics & Text | Print | Product List | Glossary On
Versions: 1 2 3 4 5 6 7 8 9 10 11 12 13 14 15 16 17 18 19 20 21 22 23 24 25 26 27 28 29 30 31 32 33 34 35 36 37 38 39 40 41 42 43 44 45 46 47 48 49 50
000
ASUS43 KMKX 290911
RWRWI

WISCONSIN REGIONAL WEATHER ROUNDUP
NATIONAL WEATHER SERVICE MILWAUKEE/SULLIVAN WI
400 AM CDT FRI JUL 29 2016

NOTE: "FAIR" INDICATES FEW OR NO CLOUDS BELOW 12,000 FEET WITH NO
SIGNIFICANT WEATHER AND/OR OBSTRUCTIONS TO VISIBILITY.

WIZ001-002-006>008-014>016-023>028-291000-
NORTHWEST WISCONSIN

CITY           SKY/WX    TMP DP  RH WIND       PRES   REMARKS
SUPERIOR ARPT  FOG       48  48 100 CALM      30.10S VSB 1/2
ASHLAND        PTCLDY    49  48  97 CALM      30.10S FOG
HAYWARD        CLEAR     48  47  96 NE5       30.10R
SIREN          CLEAR     50  48  93 CALM      30.09F
CUMBERLAND     CLEAR     54  52  94 N3        30.08S
RICE LAKE      PTCLDY    55  52  92 CALM      30.08F
CHETEK         CLOUDY    60  55  83 NE5       30.07S
LADYSMITH      CLEAR     55  53  93 N3        30.09S
EAU CLAIRE     CLOUDY    63  58  83 N6        30.03S
MENOMONIE      CLOUDY    64  58  79 N6        30.05S
NEW RICHMOND   CLOUDY    60  58  91 NE6       30.06F
OSCEOLA        PTCLDY    57  57 100 CALM      30.09F
$$

WIZ003>005-009-010-017-018-291000-
NORTH CENTRAL WISCONSIN

CITY           SKY/WX    TMP DP  RH WIND       PRES   REMARKS
MANITOWISH WTR CLEAR     49  49 100 CALM      30.09F
ARBOR VITAE    CLEAR     51  49  93 CALM      30.08F
WOODRUFF       CLEAR     51  49  93 CALM      30.08F
RHINELANDER    CLEAR     50  47  89 CALM      30.08F
EAGLE RIVER    CLEAR     47  47 100 CALM      30.08F
LAND O LAKES   FOG       44  44  99 CALM      30.10F VSB 1
PHILLIPS       CLEAR     50  50 100 CALM      30.09R FOG
TOMAHAWK       CLEAR     47  47  97 CALM      30.08S
MEDFORD        CLOUDY    57  54  88 NE7       30.07S
MERRILL        CLOUDY    56  53  89 N3        30.08S
$$

WIZ029-030-035-036-043>047-291000-
CENTRAL WISCONSIN

CITY           SKY/WX    TMP DP  RH WIND       PRES   REMARKS
WAUSAU         CLOUDY    61  53  75 N5        30.04S
MOSINEE        CLOUDY    59  54  82 N7        30.05F
MARSHFIELD     CLOUDY    62  55  77 NE7       30.04S
STEVENS POINT  CLOUDY    56  55  95 CALM      30.04S
WAUPACA        CLOUDY    63  56  78 N6        30.02F
WAUTOMA        RAIN      59  57  93 N3        30.02S
WISC RAPIDS    CLOUDY    62  52  69 NE7       30.04S
CAMP DOUGLAS   CLOUDY    64  56  76 NE8       30.00S
$$

WIZ011>013-019>022-031-037>040-048>050-291000-
NORTHEAST WISCONSIN

CITY           SKY/WX    TMP DP  RH WIND       PRES   REMARKS
ANTIGO         CLOUDY    56  52  86 CALM      30.07R
SHAWANO        CLOUDY    61  55  78 NE8       30.04S
OCONTO         PTCLDY    58  58 100 NE5       30.01F
STURGEON BAY   CLOUDY    64  59  83 NE6       30.02F
GREEN BAY      CLOUDY    61  59  93 N8        30.01F
MANITOWOC      LGT RAIN  62  60  93 N8        29.99F
APPLETON       CLOUDY    59  52  77 NE9       29.99F
CLINTONVILLE   CLOUDY    59  52  77 NE3       30.03S
OSHKOSH        CLOUDY    64  60  87 NE14      29.99S
$$

WIZ032>034-041-042-053>061-291000-
SOUTHWEST WISCONSIN

CITY           SKY/WX    TMP DP  RH WIND       PRES   REMARKS
LA CROSSE      CLOUDY    66  62  87 N6        29.99F
SPARTA         CLOUDY    64  60  87 NE7       30.01F
VIROQUA        CLOUDY    63  63 100 NE7       30.00F
BOSCOBEL       CLOUDY    67  62  84 NE5       29.97S
PRAIRIE DU CHI DRIZZLE   67  63  86 CALM      29.96S
PLATTEVILLE    CLOUDY    67  64  91 NE10      29.96S
$$

WIZ056-057-062-063-064-067-068-291000-
SOUTH CENTRAL WISCONSIN

CITY           SKY/WX    TMP DP  RH WIND       PRES   REMARKS
REEDSBURG      CLOUDY    64  64 100 NE6       29.98F
BARABOO/DELLS  LGT RAIN  64  61  91 NE6       29.99S
LONE ROCK      CLOUDY    66  62  87 NE8       29.97F
MINERAL POINT  CLOUDY    66  63  88 NE5       29.96F
MADISON        CLOUDY    65  62  90 NE6       29.96F
MIDDLETON      CLOUDY    66  63  91 NE6       29.97F
WATERTOWN      CLOUDY    65  65 100 CALM      29.95F
MONROE         CLOUDY    64  61  88 NE10      29.95F
JANESVILLE     CLOUDY    66  63  88 NE5       29.94S
$$

WIZ051-052-058>065-066-070>072-291000-
SOUTHEAST WISCONSIN

CITY           SKY/WX    TMP DP  RH WIND       PRES   REMARKS
MILWAUKEE      CLOUDY    68  65  90 N13       29.94F
WAUKESHA       CLOUDY    64  61  88 NE8       29.97S
MILWAUKEE/TIMM CLOUDY    66  61  82 NE10G18   29.96F
RACINE         MOCLDY    67  64  90 N9        29.94F
BURLINGTON     CLOUDY    67  65  93 N5        29.94S
KENOSHA        CLOUDY    68  67  96 N5        29.93F
FOND DU LAC    LGT RAIN  64  61  90 NE7       29.99S
SHEBOYGAN      CLOUDY    64  61  90 N10       29.98S
WEST BEND      CLOUDY    63  61  94 NE8       29.97F
JUNEAU         CLOUDY    64  61  92 NE9       29.97F
$$

LSZ147-162-291000-
LAKE SUPERIOR

STATION/POSITION TIME  TEMP    WIND        PRES    WAVE
                       AIR SEA DIR/SP/G            HT/PER
                 (UTC) (F)     (DEG/KT/KT) (MB)    (FT/S)
W MID LAKE BUOY  0850   60 60   CALM  /  2 1018.9R   0
DEVILS ISLAND    0900   62      20/  8/  8 1019.4F
SAXON HARBOR     0840   50     200/  5/  7 1019.0S
$$

LMZ867-665-643>646-291000-
LAKE MICHIGAN

STATION/POSITION TIME  TEMP    WIND        PRES    WAVE
                       AIR SEA DIR/SP/G            HT/PER
                 (UTC) (F)     (DEG/KT/KT) (MB)    (FT/S)
CHAMBERS ISLAND  0800   66      10/ 13/ 15 1016.9S
N MID LAKE BUOY  0850   67 69   70/ 12/ 14 1015.8S   2/ 4
NORTHPORT PIER   0840   65      10/  6/  9 1016.9S
SISTER BAY       0821   65        CALM       N/A
ALGOMA LAKESHORE 0743          350/  6/  8   N/A
KEWAUNEE LAKESHO 0800   63     290/  2/  4 1016.1R
SHEBOYGAN LAKESH 0900   61     350/ 14/ 15 1015.4F
PORT WASHINGTON  0800   67      10/  6/ 12 1015.6F
ATWATER BUOY     0800   63 62  360/ 12/ 14 1015.9F
MILWAUKEE LAKESH 0810   66      10/ 14/ 17   N/A
S MID LAKE BUOY  0850   73 75   70/ 12/ 14 1012.3F   2/ 6
KENOSHA   LAKESH 0900   69     350/  9/ 10 1012.9F
$$

TC  - TEMPERATURE IN CELSIUS
VSB - VISIBILITY IN STATUTE MILES
WCI - WIND CHILL INDEX
HX  - HEAT INDEX




USA.gov is the U.S. government's official web portal to all federal, state and local government web resources and services.